Location: Hall+in+Tirol
(47.2830°N, 11.5170°E)
Time: 02:59:54
(UTC+02:00)

Daily predictions for brighter satellites

Satellite Brightness Start Highest point End
(mag) Time Altitude Azimuth Time Altitude Azimuth Time Altitude Azimuth
Meteor 1-27 Rocket 4.2 00:10:01 52° ENE 00:10:01 52° ENE 00:15:00 10° NNE
Cosmos 1603 4.0 00:10:48 55° W 00:11:30 59° WNW 00:17:04 10° NNE
ADEOS Rocket 4.2 00:08:29 10° NNE 00:14:09 31° E 00:14:09 31° E
Cosmos 1943 3.3 00:16:00 74° NNE 00:16:00 74° NNE 00:21:10 10° NNE
H-2A R/B 3.3 00:16:58 40° NNE 00:16:58 40° NNE 00:20:13 10° N
Cosmos 2369 Rocket 2.9 00:15:04 10° NW 00:19:56 44° W 00:19:56 44° W
USA 234 3.2 00:23:40 66° SW 00:23:40 66° SW 00:30:04 10° WNW
CZ-4 R/B 4.5 00:19:28 10° NNE 00:23:11 53° NNE 00:23:11 53° NNE
SL-19 R/B 4.4 00:18:49 10° NNE 00:24:51 83° E 00:24:51 83° E
Cosmos 1486 Rocket 4.4 00:20:34 10° NNW 00:25:04 61° NNE 00:25:04 61° NNE
ALOS 2 3.8 00:28:46 40° N 00:28:46 40° N 00:31:41 10° N
Cosmos 2173 Rocket 3.9 00:30:13 81° ENE 00:30:13 81° ENE 00:36:24 10° N
CZ-4C R/B 2.9 00:29:25 43° W 00:30:46 52° NW 00:36:53 10° NE
CZ-2C R/B 3.2 00:29:41 10° N 00:34:51 50° WNW 00:34:58 50° WNW
Meteor 1-5 Rocket 4.4 00:30:23 10° N 00:34:57 65° N 00:34:57 65° N
Cosmos 2344 4.3 00:29:08 10° WSW 00:36:36 53° NW 00:45:28 10° NE
Cosmos 1110 Rocket 4.5 00:42:19 58° NW 00:42:19 58° NW 00:47:07 10° NNE
Cosmos 2016 Rocket 4.0 00:44:56 73° ENE 00:44:56 73° ENE 00:50:40 10° NNE
ATLAS 5 CENTAUR R/B 3.3 00:45:15 10° NW 00:49:32 38° W 00:49:32 38° W
Terra 4.4 00:51:39 10° W 00:51:39 10° W 00:52:20 10° WNW
Tsikada Rocket 4.0 00:53:40 10° N 00:59:41 77° NE 00:59:41 77° NE
Cosmos 1459 Rocket 4.2 01:02:27 59° W 01:02:29 59° WNW 01:08:33 10° N
SeaSat 1 3.4 01:09:43 41° NW 01:09:43 41° NW 01:13:02 10° NNW
Mayak 0.4 01:04:37 10° N 01:07:03 33° N 01:07:03 33° N
CZ-4B R/B 4.2 01:04:26 10° N 01:07:55 47° N 01:07:55 47° N
Lacrosse 5 4.2 01:11:19 10° WNW 01:12:10 14° WNW 01:12:10 14° WNW
USA 267 4.2 01:24:49 10° NE 01:30:58 45° NNW 01:37:06 10° W
Gblst 52 Del rocket 4.4 01:31:28 66° N 01:31:28 66° N 01:37:15 10° ENE
Cosmos 1943 Rocket 4.3 01:29:49 10° WNW 01:31:34 15° WNW 01:31:34 15° WNW
Lacrosse 4 Rocket 3.8 01:35:15 10° N 01:38:41 21° NE 01:40:00 19° ENE
Meteor 2-20 4.4 01:43:22 10° N 01:49:27 72° E 01:49:27 72° E
Cosmos 2233 Rocket 4.0 01:54:48 70° WNW 01:54:48 70° WNW 02:00:47 10° N
SL-16 R/B 4.1 01:51:29 17° ESE 01:55:09 29° ENE 02:00:26 10° N
Cosmos 1464 Rocket 4.3 01:54:54 54° E 01:55:10 54° E 02:01:16 10° NNE
CZ-4B R/B 4.0 02:00:08 21° NNE 02:00:08 21° NNE 02:01:35 10° N
ADEOS Rocket 3.5 01:53:34 10° N 02:00:22 54° WNW 02:01:06 52° W
CZ-2D R/B 4.3 01:57:52 10° NE 02:00:58 15° E 02:02:00 15° E
MOS 1 Rocket 4.2 01:56:27 10° NNE 01:59:58 44° NE 01:59:58 44° NE
Meteor 1-12 Rocket 4.3 01:55:48 10° NNW 02:00:56 72° NNW 02:00:56 72° NNW
Meteor 1-18 Rocket 4.4 02:02:04 67° NW 02:02:04 67° NW 02:07:16 10° N
COSMOS 2406 3.3 02:02:33 75° NNE 02:02:33 75° NNE 02:07:48 10° NNE
Cosmos 2278 4.4 01:56:47 10° NNW 02:02:17 49° ENE 02:03:22 43° E
Cosmos 968 Rocket 4.3 01:59:38 10° NNW 02:03:18 43° NW 02:03:18 43° NW
Cosmos 1980 Rocket 4.1 02:01:13 10° N 02:05:54 26° NE 02:10:34 10° ESE
Cosmos 1697 Rocket 3.8 02:03:25 10° NNW 02:08:48 41° NE 02:11:04 29° ESE
Lacrosse 5 rocket 4.0 02:13:07 13° E 02:13:07 13° E 02:13:45 10° ENE
Nadezhda 4 Rocket 4.5 02:08:32 10° N 02:14:32 53° ENE 02:15:46 46° ESE
Cosmos 1513 Rocket 4.4 02:16:34 69° ESE 02:16:51 70° E 02:22:54 10° NNE
Cosmos 2082 Rocket 3.4 02:19:18 30° ESE 02:19:22 30° ESE 02:24:12 10° NE
Meteor 1-19 Rocket 4.2 02:20:31 83° ENE 02:20:31 83° ENE 02:26:14 10° NNE
Cosmos 1891 Rocket 4.4 02:20:11 72° ESE 02:20:27 73° E 02:26:30 10° NNE
Cosmos 1656 3.6 02:30:35 10° NNW 02:36:20 89° ENE 02:36:27 87° SE
Cosmos 1072 Rocket 4.4 02:36:17 68° WSW 02:36:49 72° W 02:43:17 10° N
Resurs 1-4 Rocket 3.3 02:33:38 10° NNE 02:38:16 31° E 02:39:12 29° ESE
Exosat Rocket 4.2 02:36:32 10° NNW 02:42:18 79° ENE 02:45:41 35° SSE
H-2A R/B 3.6 02:40:54 10° NNE 02:44:32 38° E 02:44:32 38° E
NPP 4.0 02:42:38 10° NNE 02:47:55 53° E 02:48:33 50° SE
Meteor 1-13 Rocket 4.2 02:51:25 68° W 02:51:37 68° WNW 02:57:20 10° N
Cosmos 2369 3.7 02:48:30 10° NNW 02:53:41 64° W 02:53:41 64° W
Cosmos 1833 Rocket 2.8 02:54:51 58° SE 02:55:23 61° ESE 03:00:58 10° NNE
CBERS-1 4.3 02:53:21 10° NNE 02:58:24 58° E 02:58:57 55° SE
Cosmos 1975 Rocket 4.5 03:00:22 28° NW 03:00:22 28° NW 03:03:29 10° N
Cosmos 1455 Rocket 4.4 02:57:23 10° NNW 02:59:59 30° NW 02:59:59 30° NW
SL-08 R/B 3.3 03:01:55 71° ESE 03:02:18 77° ENE 03:07:12 10° N
Cosmos 1340 Rocket 3.3 03:06:30 56° NNE 03:06:30 56° NNE 03:09:42 10° NNE
Cosmos 1607 3.9 03:08:18 58° SSW 03:09:40 83° SE 03:16:13 10° NE
UNK 3.6 03:10:46 84° ESE 03:10:52 85° ENE 03:15:29 10° NNW
Gbstr 26 Del rocket 4.3 03:09:08 40° WSW 03:12:17 84° NNW 03:19:14 10° ENE
Cosmos 2034 Rocket 4.1 03:11:43 52° WSW 03:12:44 58° WNW 03:18:54 10° N
Cosmos 1025 Rocket 3.3 03:15:22 58° ESE 03:15:30 59° E 03:19:44 10° NNE
Cosmos 2360 4.3 03:09:57 10° NNW 03:15:40 73° ENE 03:19:36 21° SE
Lacrosse 4 Rocket 2.4 03:13:23 10° NW 03:16:16 39° NW 03:16:16 39° NW
Iridium 4 Rocket 3.0 03:21:40 76° SE 03:21:53 79° E 03:26:25 10° N
Cosmos 1092 Rocket 3.9 03:15:41 10° NNW 03:21:54 74° W 03:23:39 49° SSW
AQUA 3.7 03:17:06 10° NNE 03:21:55 83° ESE 03:22:27 70° S
Cosmos 1356 4.1 03:29:17 53° N 03:29:17 53° N 03:32:03 10° N
APEX 4.4 03:27:26 47° SSW 03:29:32 87° ESE 03:35:19 10° NNE
COSMOS 2487 3.3 03:30:11 45° E 03:30:11 45° E 03:33:17 10° NNE
ARIANE 5 R/B 3.1 03:25:11 10° NNE 03:30:20 54° E 03:32:18 35° SSE
Spot 4 Rocket 4.5 03:25:25 10° NNE 03:30:30 56° E 03:32:21 36° SSE
Cosmos 1536 Rocket 4.2 03:31:57 41° WNW 03:31:57 41° WNW 03:35:47 10° N
Cosmos 1867 4.0 03:27:02 10° NW 03:31:28 43° W 03:31:28 43° W
Cosmos 1066 Rocket 4.4 03:30:43 38° SSE 03:32:44 65° E 03:38:06 10° NNE
Meteor 1-23 Rocket 4.4 03:31:41 50° WSW 03:32:51 60° WNW 03:38:30 10° N
Meteor 2-4 Rocket 4.4 03:33:24 35° W 03:34:00 36° WNW 03:38:56 10° N
SL-16 R/B 2.6 03:36:34 43° SSW 03:38:25 59° WSW 03:44:37 10° NNW
Cosmos 1766 4.2 03:37:55 10° N 03:41:41 46° ENE 03:43:29 26° SE
CZ-2D R/B 2.0 03:36:17 10° NNE 03:41:43 82° WNW 03:43:20 47° SSW
SAR-Lupe-2 3.6 03:42:27 73° NNW 03:42:27 73° NNW 03:45:44 10° NNW
Cosmos 332 Rocket 4.3 03:41:43 41° W 03:42:22 44° WNW 03:46:59 10° N
Cosmos 371 Rocket 3.7 03:42:33 43° W 03:43:17 46° WNW 03:47:59 10° NNE
Cosmos 1356 Rocket 3.5 03:46:16 52° SSE 03:47:03 67° E 03:51:06 10° NNE
PSLV R/B 4.1 03:48:22 53° W 03:48:22 53° W 03:52:07 10° NNW
Lacrosse 5 rocket 1.4 03:48:47 60° W 03:49:26 73° NW 03:53:31 10° NE
Cosmos 1627 Rocket 4.5 03:43:22 10° NNW 03:49:41 66° W 03:52:35 33° SSW
Cosmos 1980 Rocket 2.1 03:44:48 10° NNW 03:50:21 64° WSW 03:53:14 29° S
Cosmos 2298 Rocket 4.5 03:47:05 10° NNW 03:52:23 62° ENE 03:57:39 10° SE
Cosmos 1697 Rocket 3.2 03:47:33 10° NW 03:52:42 37° WSW 03:52:45 36° WSW
Okean 2 3.9 03:55:10 42° W 03:55:15 42° WNW 03:59:11 10° N
IRS-1D 3.5 03:51:01 10° N 03:56:11 73° WNW 03:58:03 40° SSW
IRS-1C 4.2 03:52:45 10° N 03:58:01 60° WNW 03:59:51 39° SW
ATLAS 3B R/B 3.9 03:54:27 16° S 03:59:24 36° ESE 04:05:37 10° NE
CZ-2D R/B 4.0 03:56:15 10° NNE 04:00:15 53° E 04:02:11 28° SSE
Helios 1A Rocket 3.1 03:56:32 10° NNE 04:00:43 70° ESE 04:02:14 37° S
SL-16 R/B 2.7 03:57:22 10° NNW 04:03:01 62° ENE 04:08:38 10° SE
Cosmos 2082 Rocket 2.6 04:01:09 34° WSW 04:03:13 49° NW 04:08:42 10° NNE
ADEOS II 3.2 03:58:48 10° NNE 04:03:44 39° E 04:08:33 10° SSE
Cosmos 1726 Rocket 3.4 04:00:59 10° N 04:05:20 81° W 04:07:16 32° S
ADEOS 3.8 04:01:27 10° NNE 04:06:41 66° ESE 04:10:04 22° S
Cosmos 841 Rocket 4.5 04:07:57 16° SSE 04:11:46 42° ESE 04:16:40 10° NE
Cosmos 1634 Rocket 4.3 04:10:51 31° SW 04:13:31 48° WNW 04:19:35 10° N
Meteor 1-22 Rocket 4.2 04:08:44 10° NNW 04:14:44 72° W 04:19:37 15° S
Okean 1-7 Rocket 3.8 04:16:42 37° SW 04:18:08 52° WNW 04:22:34 10° N
Cosmos 304 Rocket 4.0 04:16:21 35° SW 04:18:12 58° WNW 04:22:59 10° NNE
Resurs 1-4 Rocket 2.7 04:13:18 10° N 04:18:12 41° WNW 04:20:17 28° WSW
USA 215 4.3 04:12:48 10° ENE 04:18:43 35° SE 04:23:31 15° S
Cosmos 2322 Rocket 2.4 04:13:05 10° NNW 04:18:47 76° ENE 04:24:23 10° SSE
H-2A R/B 3.9 04:16:49 10° NNW 04:20:14 24° WNW 04:21:08 22° W
Cosmos 2058 Rocket 3.0 04:21:30 10° NNW 04:25:54 71° W 04:29:17 17° S
Cosmos 2279 Rocket 4.1 04:23:09 24° SSW 04:27:02 62° WNW 04:33:16 10° N
UNKNOWN OBJECT B 2.7 04:26:20 10° N 04:30:13 71° WNW 04:32:01 29° SSW
Cosmos 2228 3.0 04:27:24 10° NNW 04:31:37 56° W 04:34:15 21° SSW
Cosmos 1606 Rocket 4.2 04:29:22 10° NNW 04:33:18 34° W 04:34:34 28° SW
Cosmos 1470 3.9 04:33:07 10° N 04:36:59 45° ENE 04:40:49 10° SSE
Cosmos 1763 Rocket 3.5 04:34:33 21° SSW 04:38:12 85° WNW 04:43:34 10° NNE
Cosmos 1544 4.4 04:35:39 10° NW 04:38:36 23° W 04:38:37 23° W
Cosmos 1833 Rocket 4.0 04:36:33 17° W 04:39:44 27° NW 04:44:31 10° N
Cosmos 1626 Rocket 4.0 04:38:16 10° S 04:42:31 62° E 04:46:48 10° NNE
Cosmos 292 Rocket 4.2 04:39:31 12° S 04:43:52 61° ESE 04:48:37 10° NNE
SJ 16-02 1.9 04:41:51 10° NNW 04:46:14 61° ENE 04:50:36 10° SSE
Cosmos 1898 Rocket 4.4 04:44:27 10° NW 04:48:51 28° W 04:51:58 16° SSW
Cosmos 1892 Rocket 4.1 04:46:46 22° SW 04:49:11 41° WNW 04:53:22 10° N
ATLAS CENTAUR R/B 2.5 04:50:55 10° NNW 04:55:08 50° NE 04:59:37 10° ESE
USA 267 3.9 04:49:09 10° ESE 04:55:32 59° NNE 05:01:56 10° NW
Timation 2 Rocket 3.9 04:52:42 15° SSW 04:57:46 79° WNW 05:03:45 10° NNE
Cosmos 1842 3.7 04:55:24 19° SW 04:57:57 45° WNW 05:01:47 10° N
Cosmos 1707 3.9 04:54:29 10° SSE 04:58:09 43° E 05:01:52 10° NNE
Cosmos 1937 Rocket 4.2 04:55:01 10° NW 04:59:34 31° W 05:04:03 10° SSW
Cosmos 1378 3.6 04:56:52 10° S 05:00:33 62° E 05:04:17 10° NNE
Cosmos 724 4.4 04:56:17 17° SW 05:00:47 65° NW 05:06:34 10° NNE
USA 238 DEB 3.8 04:55:20 14° SW 05:01:18 88° SE 05:08:21 10° NE
USA 238 3.8 04:55:24 14° SW 05:01:24 87° SE 05:08:27 10° NE
Cosmos 44 3.9 04:56:39 10° NW 05:01:31 40° WSW 05:06:30 10° S
Cosmos 1125 Rocket 3.7 04:56:37 10° NNW 05:01:58 77° ENE 05:07:16 10° SSE
deb Kosmos-1763 4.4 05:04:31 16° SW 05:07:19 53° WNW 05:11:02 10° NNE
Cosmos 2266 Rocket 4.1 05:02:15 10° NNW 05:08:07 52° W 05:14:02 10° SSW
ARIANE 5 R/B 3.9 05:04:55 10° N 05:09:06 25° WNW 05:12:40 13° WSW
Cosmos 1953 2.3 05:06:07 10° NNW 05:10:10 63° W 05:14:11 10° S
Cosmos 1805 4.4 05:07:32 10° NW 05:10:44 25° W 05:13:25 13° SW
USA 161 3.3 05:10:54 10° SE 05:13:43 37° ENE 05:16:28 10° N
Gblst 52 Del rocket 4.4 05:09:44 10° WNW 05:15:39 71° SSW 05:22:24 10° SE
DNEPR-1 R/B 3.8 05:13:59 10° SSW 05:18:10 70° SE 05:22:51 10° NE
CZ-2D R/B 4.0 05:18:02 10° NNW 05:20:57 15° NW 05:23:50 10° W
Okean O Rocket 2.7 05:20:48 10° NNE 05:25:01 46° E 05:29:11 10° S
Cosmos 372 Rocket 4.0 05:22:00 10° NNW 05:27:11 63° WSW 05:32:18 10° S
CRYOSAT 2 4.5 05:23:41 10° S 05:28:32 83° E 05:33:25 10° N
BREEZE-M R/B 3.4 05:25:33 11° WSW 05:29:02 85° SSE 05:36:29 10° ENE
Lacrosse 5 rocket 3.0 05:25:40 10° WNW 05:29:10 25° NNW 05:32:29 10° NE
Cosmos 44 Rocket 4.0 05:24:43 10° NW 05:29:19 34° WSW 05:33:56 10° S
BREEZE-M DEB (TANK) 3.1 05:28:04 10° SSW 05:30:01 28° SE 05:32:31 10° E
Meteor 1-28 Rocket 3.5 05:28:02 10° SSE 05:31:45 74° ENE 05:35:33 10° N
Cosmos 2360 Rocket 2.2 05:26:16 10° NNW 05:31:53 69° WSW 05:37:27 10° SSE
Cosmos 1825 Rocket 4.0 05:28:15 10° S 05:32:32 67° E 05:36:50 10° NNE
Aureole 2 Rocket 2.7 05:30:01 10° NNW 05:33:47 51° WSW 05:37:17 10° S
Cosmos 1758 4.5 05:32:44 10° NW 05:35:58 24° W 05:39:12 10° SW
NOSS 3-2 (C) 3.8 05:32:28 10° SSW 05:38:23 72° SE 05:45:02 10° NE
ADEOS II 3.0 05:38:43 10° N 05:43:21 32° WNW 05:47:58 10° SW
Cosmos 2333 Rocket 3.6 05:39:27 10° NNW 05:44:54 46° NE 05:50:20 10° SE
SL-16 R/B 3.3 05:42:18 10° NW 05:46:40 23° WSW 05:51:00 10° SSW
